Teterboro, NJ

4:41 AM EST on December 11, 2016 (GMT -0500)
Teterboro

Weather History for KTEB - October, 2012

Change the Weather History Date:

Tuesday, October 2, 2012

  Actual Average Record
Temperature  
Mean Temperature 65 °F -  
Max Temperature 71 °F 68 °F 89 °F (2002)
Min Temperature 60 °F 48 °F 33 °F (1997)
Growing Degree Days 15 (Base 50)    
Moisture  
Dew Point 58 °F    
Average Humidity 84    
Maximum Humidity 96    
Minimum Humidity 53    
Precipitation  
Precipitation 0.45 in - - ()
Sea Level Pressure  
Sea Level Pressure 29.99 in    
Wind  
Wind Speed 2 mph (NNE)    
Max Wind Speed 6 mph    
Max Gust Speed -    
Visibility 5 miles    
Events Rain    
Averages and records for this station are not official NWS values.
T = Trace of Precipitation, MM = Missing Value Source: NWS Daily Summary

Daily Weather History Graph

Daily Weather History Graph

Search for Another Location

Airport or City:

Trip Planner

Search our weather history database for the weather conditions in past years. The results will help you decide how hot, cold, wet, or windy it might be!

Date:

Astronomy

Oct. 02, 2012 Rise Set
Actual Time 6:54 AM EDT 6:35 PM EDT
Civil Twilight 6:26 AM EDT 7:03 PM EDT
Nautical Twilight 5:55 AM EDT 7:34 PM EDT
Astronomical Twilight 5:23 AM EDT 8:06 PM EDT
Moon 7:45 PM EDT (10/2) 9:20 AM EDT (10/2)
Length of Visible Light 12h 36m
Length of Day
11h 41m
Waning Gibbous, 94% of the Moon is Illuminated
Oct 2
Waning Gibbous
Oct 8
Last Quarter
Oct 15
New
Oct 21
First Quarter
Oct 29
Full

Hourly Weather History & Observations

Time (EDT) Temp. Dew Point Humidity Pressure Visibility Wind Dir Wind Speed Gust Speed Precip Events Conditions
12:51 AM 60.1 °F 54.0 °F 80% 29.97 in 10.0 mi SSW 3.5 mph - N/A   Overcast
1:51 AM 61.0 °F 53.1 °F 75% 29.98 in 10.0 mi Calm Calm - N/A   Clear
3:51 AM 62.1 °F 54.0 °F 75% 29.97 in 10.0 mi Calm Calm - N/A   Overcast
4:51 AM 61.0 °F 54.0 °F 78% 29.98 in 10.0 mi Calm Calm - N/A   Overcast
5:51 AM 62.1 °F 54.0 °F 75% 29.99 in 10.0 mi Calm Calm - N/A   Overcast
6:51 AM 62.1 °F 54.0 °F 75% 29.99 in 10.0 mi Calm Calm - N/A   Overcast
7:51 AM 64.0 °F 54.0 °F 70% 30.01 in 10.0 mi Calm Calm - N/A   Overcast
8:51 AM 64.9 °F 53.1 °F 65% 30.01 in 10.0 mi Calm Calm - N/A   Overcast
9:51 AM 68.0 °F 54.0 °F 61% 30.01 in 10.0 mi NE 3.5 mph - N/A   Mostly Cloudy
10:11 AM 69.8 °F 55.4 °F 60% 30.01 in 10.0 mi Variable 5.8 mph - N/A   Mostly Cloudy
10:41 AM 69.8 °F 51.8 °F 53% 30.00 in 10.0 mi SE 4.6 mph - N/A   Overcast
10:51 AM 70.0 °F 52.0 °F 53% 30.00 in 10.0 mi ESE 3.5 mph - N/A   Overcast
11:51 AM 69.1 °F 55.0 °F 61% 30.01 in 6.0 mi SSE 5.8 mph - 0.00 in Rain Light Rain
12:17 PM 66.2 °F 57.2 °F 73% 30.01 in 4.0 mi SE 3.5 mph - 0.06 in Rain Light Rain
12:51 PM 64.9 °F 60.1 °F 84% 30.01 in 5.0 mi Calm Calm - 0.09 in Rain Light Rain
1:26 PM 64.4 °F 60.8 °F 88% 30.00 in 5.0 mi NNW 3.5 mph - 0.04 in Rain Light Rain
1:41 PM 64.4 °F 60.8 °F 88% 30.00 in 4.0 mi Calm Calm - 0.05 in Rain Rain
1:51 PM 64.0 °F 61.0 °F 90% 30.00 in 2.5 mi NNE 3.5 mph - 0.07 in Rain Rain
1:58 PM 64.4 °F 60.8 °F 88% 30.00 in 3.0 mi Calm Calm - 0.01 in Rain Light Rain
2:51 PM 64.0 °F 60.1 °F 87% 29.98 in 3.0 mi ENE 3.5 mph - 0.05 in Rain Rain
3:51 PM 63.0 °F 59.0 °F 87% 29.98 in 3.0 mi NNE 5.8 mph - 0.06 in Rain Rain
3:58 PM 62.6 °F 60.8 °F 94% 29.97 in 3.0 mi NE 3.5 mph - 0.01 in Rain Light Rain
4:13 PM 62.6 °F 60.8 °F 94% 29.97 in 2.0 mi NNE 3.5 mph - 0.02 in Rain Heavy Rain
4:21 PM 62.6 °F 60.8 °F 94% 29.97 in 1.5 mi NNE 5.8 mph - 0.10 in Rain Heavy Rain
4:29 PM 62.6 °F 60.8 °F 94% 29.97 in 2.0 mi ENE 3.5 mph - 0.13 in Rain Light Rain
4:33 PM 62.6 °F 60.8 °F 94% 29.97 in 2.0 mi Calm Calm - 0.13 in Rain Light Rain
4:40 PM 62.6 °F 60.8 °F 94% 29.97 in 3.0 mi NNE 4.6 mph - 0.13 in Rain Light Rain
4:51 PM 63.0 °F 61.0 °F 93% 29.97 in 3.0 mi NNE 4.6 mph - 0.13 in Rain Light Rain
5:04 PM 62.6 °F 60.8 °F 94% 29.97 in 3.0 mi NE 4.6 mph - 0.01 in Rain Light Rain
5:44 PM 62.6 °F 60.8 °F 94% 29.97 in 2.0 mi NE 3.5 mph - 0.03 in Rain Light Rain
5:51 PM 63.0 °F 60.1 °F 90% 29.97 in 2.0 mi NNE 4.6 mph - 0.04 in Rain Light Rain
6:51 PM 62.1 °F 60.1 °F 93% 29.96 in 2.0 mi Calm Calm - 0.00 in   Overcast
6:58 PM 62.6 °F 60.8 °F 94% 29.96 in 6.0 mi Calm Calm - N/A   Overcast
7:51 PM 63.0 °F 61.0 °F 93% 29.98 in 3.0 mi North 4.6 mph - N/A   Overcast
8:28 PM 62.6 °F 60.8 °F 94% 29.98 in 2.0 mi North 4.6 mph - N/A   Overcast
8:36 PM 62.6 °F 60.8 °F 94% 29.98 in 1.8 mi North 4.6 mph - N/A   Overcast
8:51 PM 62.1 °F 60.1 °F 93% 29.99 in 1.8 mi North 5.8 mph - N/A   Overcast
9:51 PM 62.1 °F 61.0 °F 96% 29.99 in 1.8 mi Calm Calm - 0.01 in Rain Light Rain
10:25 PM 62.6 °F 60.8 °F 94% 29.99 in 2.0 mi North 4.6 mph - 0.00 in Rain Light Rain
10:51 PM 63.0 °F 61.0 °F 93% 29.99 in 2.0 mi North 4.6 mph - 0.00 in Rain Light Rain
11:37 PM 62.6 °F 60.8 °F 94% 29.99 in 1.5 mi North 5.8 mph - 0.00 in Rain Light Rain
11:51 PM 63.0 °F 61.0 °F 93% 29.99 in 1.5 mi North 4.6 mph - 0.00 in Rain Light Rain